Weather in Shin'sha

Russia / Mari El Republic     56°25′20″N   49°22′01″E
temp.,
°C
wind,
m/s
gust,
m/s
humid.,
%
clouds,
%
prec.,
mm/h
press.,
hPa
HPBL,
m
27 february, sat
sat2700:00−14se71494100 4.9 1001706
03:00−13se51194100 6.9 1000587
06:00−14ese51095100 1.6 999503
09:00−13ene5994100 2.4 999492
12:00−11ene5891100 0.4 1000635
15:00−11nne5991100 0.8 1002653
18:00−13nne51092100 0.2 1003575
21:00−14n41094100 0.3 1005336
28 february, sun
sun2800:00−16n41095100 0.1 1005271
03:00−19n499694 0.1 1007245
06:00−19n4109692 0.0 1008268
09:00−18n489391 0.0 1009284
12:00−15n489042 0.0 1010388
15:00−13n489054 0.0 1011510
18:00−17n359694 0.0 1013117
21:00−20n359849 0.0 101685
1 march, mon
mon100:00−21nnw23980 0.0 101854
03:00−22nnw23980 0.0 102032
06:00−23nnw23972 0.0 102121
09:00−18nnw13921 0.0 1022170
12:00−12wnw128424 0.0 1021402
15:00−11w248852 0.0 1021458
18:00−15sw239678 0.0 101851
21:00−15sw389688 0.0 1017221
2 march, tue
tue200:00−13ssw4996100 0.1 1013281
03:00−11ssw51194100 0.3 1008389
06:00−9ssw51194100 0.8 1004488
09:00−6ssw51095100 1.6 1001493
12:00−2ssw5997100 0.8 999502
15:000wsw36100100 2.8 998385
18:00−2w2497100 0.5 997133
21:00−1nnw51094100 1.3 998662
3 march, wed
wed300:00−5nw4109493 0.1 998321
03:00−7nw399392 0.1 999232
06:00−9nw379671 0.0 1000134
09:00−6nnw379583 0.0 1002313
12:00−3nnw479097 0.1 1003665
15:00−3nnw6109098 0.3 1005857
18:00−7nw4128767 0.1 1006369
21:00−7nw4119348 0.1 1009549